| time (UTC) | temp F | wind direction | speed MPH | gust MPH | rain 1hr in | rain 24hr in | rain mn in | humidity % | barometer mb |
| 20260509055218 | 63 | 109 | 9.0 | 12.0 | 0.00 | 0.00 | 0.00 | 18 | 1015.5 |
| 20260509054731 | 63 | 109 | 9.0 | 14.0 | 0.00 | 0.00 | 0.00 | 18 | 1015.5 |
| 20260509054226 | 63 | 109 | 10.0 | 14.0 | 0.00 | 0.00 | 0.00 | 17 | 1015.5 |
| 20260509053720 | 63 | 108 | 10.0 | 13.0 | 0.00 | 0.00 | 0.00 | 17 | 1015.4 |
| 20260509053254 | 64 | 108 | 10.0 | 13.0 | 0.00 | 0.00 | 0.00 | 17 | 1015.4 |
| 20260509052726 | 64 | 107 | 10.0 | 13.0 | 0.00 | 0.00 | 0.00 | 17 | 1015.4 |
| 20260509052219 | 64 | 107 | 8.0 | 14.0 | 0.00 | 0.00 | 0.00 | 16 | 1015.4 |
| 20260509051717 | 64 | 107 | 10.0 | 14.0 | 0.00 | 0.00 | 0.00 | 16 | 1015.4 |
| 20260509051231 | 65 | 101 | 10.0 | 13.0 | 0.00 | 0.00 | 0.00 | 16 | 1015.4 |
| 20260509050725 | 65 | 99 | 8.0 | 13.0 | 0.00 | 0.00 | 0.00 | 15 | 1015.4 |
| 20260509050220 | 65 | 99 | 10.0 | 13.0 | 0.00 | 0.00 | 0.00 | 16 | 1015.4 |
| 20260509045733 | 65 | 93 | 10.0 | 13.0 | 0.00 | 0.00 | 0.00 | 16 | 1015.4 |
| 20260509045227 | 65 | 93 | 8.0 | 12.0 | 0.00 | 0.00 | 0.00 | 16 | 1015.4 |
| 20260509044721 | 65 | 93 | 10.0 | 12.0 | 0.00 | 0.00 | 0.00 | 16 | 1015.4 |
| 20260509044235 | 66 | 88 | 8.0 | 12.0 | 0.00 | 0.00 | 0.00 | 16 | 1015.4 |
| 20260509043749 | 65 | 88 | 9.0 | 12.0 | 0.00 | 0.00 | 0.00 | 15 | 1015.4 |
| 20260509043225 | 65 | 85 | 9.0 | 11.0 | 0.00 | 0.00 | 0.00 | 16 | 1015.4 |
| 20260509042719 | 66 | 84 | 9.0 | 12.0 | 0.00 | 0.00 | 0.00 | 15 | 1015.4 |
| 20260509042233 | 65 | 82 | 9.0 | 12.0 | 0.00 | 0.00 | 0.00 | 15 | 1015.4 |
| 20260509041727 | 65 | 77 | 9.0 | 11.0 | 0.00 | 0.00 | 0.00 | 15 | 1015.4 |
| 20260509041221 | 65 | 74 | 8.0 | 11.0 | 0.00 | 0.00 | 0.00 | 15 | 1015.4 |
| 20260509040715 | 64 | 74 | 9.0 | 12.0 | 0.00 | 0.00 | 0.00 | 17 | 1015.4 |
| 20260509040230 | 64 | 74 | 7.0 | 12.0 | 0.00 | 0.00 | 0.00 | 16 | 1015.4 |
| 20260509035723 | 65 | 71 | 8.0 | 11.0 | 0.00 | 0.00 | 0.00 | 16 | 1015.5 |
| 20260509035221 | 65 | 69 | 8.0 | 12.0 | 0.00 | 0.00 | 0.00 | 16 | 1015.5 |
| 20260509034715 | 64 | 67 | 8.0 | 12.0 | 0.00 | 0.00 | 0.00 | 17 | 1015.4 |
| 20260509034229 | 64 | 63 | 9.0 | 12.0 | 0.00 | 0.00 | 0.00 | 18 | 1015.4 |
| 20260509033743 | 64 | 50 | 8.0 | 12.0 | 0.00 | 0.00 | 0.00 | 18 | 1015.4 |
| 20260509033216 | 64 | 42 | 8.0 | 11.0 | 0.00 | 0.00 | 0.00 | 17 | 1015.3 |
| 20260509032730 | 64 | 27 | 6.0 | 9.0 | 0.00 | 0.00 | 0.00 | 17 | 1015.2 |
| 20260509032246 | 64 | 27 | 4.0 | 10.0 | 0.00 | 0.00 | 0.00 | 18 | 1015.2 |
| 20260509031718 | 65 | 27 | 7.0 | 10.0 | 0.00 | 0.00 | 0.00 | 15 | 1015.1 |
| 20260509031216 | 65 | 20 | 6.0 | 9.0 | 0.00 | 0.00 | 0.00 | 14 | 1015.1 |
| 20260509030729 | 66 | 17 | 5.0 | 6.0 | 0.00 | 0.00 | 0.00 | 14 | 1015.1 |
| 20260509030225 | 65 | 17 | 5.0 | 7.0 | 0.00 | 0.00 | 0.00 | 16 | 1015.0 |
| 20260509025719 | 65 | 17 | 3.0 | 4.0 | 0.00 | 0.00 | 0.00 | 16 | 1015.0 |
| 20260509025233 | 65 | 17 | 2.0 | 5.0 | 0.00 | 0.00 | 0.00 | 16 | 1015.0 |
| 20260509024747 | 66 | 17 | 2.0 | 6.0 | 0.00 | 0.00 | 0.00 | 14 | 1015.0 |
| 20260509024240 | 68 | 17 | 5.0 | 6.0 | 0.00 | 0.00 | 0.00 | 13 | 1015.0 |
| 20260509023733 | 68 | 17 | 5.0 | 6.0 | 0.00 | 0.00 | 0.00 | 12 | 1014.9 |
| 20260509023227 | 69 | 17 | 4.0 | 8.0 | 0.00 | 0.00 | 0.00 | 12 | 1014.9 |
| 20260509022725 | 70 | 17 | 5.0 | 8.0 | 0.00 | 0.00 | 0.00 | 12 | 1014.9 |
| 20260509022219 | 70 | 17 | 4.0 | 5.0 | 0.00 | 0.00 | 0.00 | 11 | 1014.9 |
| 20260509021714 | 71 | 17 | 2.0 | 8.0 | 0.00 | 0.00 | 0.00 | 10 | 1014.8 |
| 20260509021228 | 72 | 31 | 4.0 | 8.0 | 0.00 | 0.00 | 0.00 | 9 | 1014.8 |
| 20260509020722 | 72 | 31 | 5.0 | 8.0 | 0.00 | 0.00 | 0.00 | 10 | 1014.7 |
| 20260509020238 | 73 | 31 | 2.0 | 5.0 | 0.00 | 0.00 | 0.00 | 10 | 1014.7 |
| 20260509015730 | 73 | 31 | 3.0 | 11.0 | 0.00 | 0.00 | 0.00 | 9 | 1014.7 |
| 20260509014723 | 74 | 23 | 7.0 | 10.0 | 0.00 | 0.00 | 0.00 | 8 | 1014.6 |
| 20260509014238 | 74 | 19 | 4.0 | 10.0 | 0.00 | 0.00 | 0.00 | 8 | 1014.6 |
| 20260509013730 | 75 | 19 | 5.0 | 9.0 | 0.00 | 0.00 | 0.00 | 8 | 1014.6 |
| 20260509013224 | 75 | 20 | 4.0 | 7.0 | 0.00 | 0.00 | 0.00 | 7 | 1014.5 |
| 20260509012717 | 76 | 20 | 3.0 | 8.0 | 0.00 | 0.00 | 0.00 | 7 | 1014.6 |
| 20260509011745 | 76 | 20 | 4.0 | 10.0 | 0.00 | 0.00 | 0.00 | 8 | 1014.5 |
| 20260509011218 | 76 | 19 | 6.0 | 10.0 | 0.00 | 0.00 | 0.00 | 6 | 1014.5 |
| 20260509010732 | 76 | 18 | 3.0 | 11.0 | 0.00 | 0.00 | 0.00 | 6 | 1014.6 |
| 20260509010227 | 77 | 18 | 4.0 | 11.0 | 0.00 | 0.00 | 0.00 | 7 | 1014.7 |
| 20260509005725 | 77 | 24 | 3.0 | 10.0 | 0.00 | 0.00 | 0.00 | 7 | 1014.7 |
| 20260509005219 | 77 | 24 | 5.0 | 11.0 | 0.00 | 0.00 | 0.00 | 6 | 1014.7 |
| 20260509004733 | 77 | 27 | 5.0 | 11.0 | 0.00 | 0.00 | 0.00 | 7 | 1014.7 |
| 20260509004227 | 77 | 25 | 4.0 | 10.0 | 0.00 | 0.00 | 0.00 | 7 | 1014.7 |
| 20260509003721 | 77 | 25 | 5.0 | 11.0 | 0.00 | 0.00 | 0.00 | 5 | 1014.8 |
| 20260509003233 | 77 | 26 | 6.0 | 12.0 | 0.00 | 0.00 | 0.00 | 5 | 1014.8 |
| 20260509002747 | 78 | 26 | 6.0 | 12.0 | 0.00 | 0.00 | 0.00 | 6 | 1014.8 |
| 20260509002217 | 78 | 25 | 7.0 | 12.0 | 0.00 | 0.00 | 0.00 | 6 | 1014.8 |
| 20260509001715 | 78 | 5 | 5.0 | 11.0 | 0.00 | 0.00 | 0.00 | 6 | 1014.8 |
| 20260509001229 | 78 | 5 | 4.0 | 11.0 | 0.00 | 0.00 | 0.00 | 4 | 1014.8 |
| 20260509000722 | 78 | 5 | 5.0 | 11.0 | 0.00 | 0.00 | 0.00 | 5 | 1014.9 |
| 20260509000238 | 78 | 338 | 5.0 | 14.0 | 0.00 | 0.00 | 0.00 | 6 | 1015.0 |
| 20260508235729 | 79 | 336 | 4.0 | 14.0 | 0.00 | 0.00 | 0.00 | 5 | 1015.0 |
| 20260508235223 | 80 | 336 | 7.0 | 23.0 | 0.00 | 0.00 | 0.00 | 5 | 1015.1 |
| 20260508234717 | 79 | 325 | 8.0 | 23.0 | 0.00 | 0.00 | 0.00 | 6 | 1015.0 |
| 20260508234231 | 78 | 30 | 0.0 | 12.0 | 0.00 | 0.00 | 0.00 | 4 | 1015.0 |
| 20260508233725 | 78 | 30 | 3.0 | 17.0 | 0.00 | 0.00 | 0.00 | 3 | 1015.1 |
| 20260508233223 | 79 | 30 | 9.0 | 17.0 | 0.00 | 0.00 | 0.00 | 5 | 1015.1 |
| 20260508232717 | 79 | 21 | 7.0 | 14.0 | 0.00 | 0.00 | 0.00 | 5 | 1015.1 |
| 20260508232251 | 79 | 12 | 5.0 | 13.0 | 0.00 | 0.00 | 0.00 | 6 | 1015.2 |
| 20260508231744 | 79 | 11 | 8.0 | 13.0 | 0.00 | 0.00 | 0.00 | 4 | 1015.3 |
| 20260508231217 | 80 | 344 | 8.0 | 13.0 | 0.00 | 0.00 | 0.00 | 4 | 1015.4 |
| 20260508230731 | 79 | 328 | 7.0 | 14.0 | 0.00 | 0.00 | 0.00 | 4 | 1015.4 |
| 20260508230227 | 80 | 320 | 9.0 | 14.0 | 0.00 | 0.00 | 0.00 | 4 | 1015.5 |
| 20260508225720 | 79 | 330 | 5.0 | 12.0 | 0.00 | 0.00 | 0.00 | 4 | 1015.4 |
| 20260508225234 | 79 | 330 | 4.0 | 10.0 | 0.00 | 0.00 | 0.00 | 4 | 1015.5 |
| 20260508224747 | 79 | 330 | 4.0 | 18.0 | 0.00 | 0.00 | 0.00 | 5 | 1015.6 |
| 20260508224244 | 79 | 329 | 7.0 | 18.0 | 0.00 | 0.00 | 0.00 | 5 | 1015.7 |
| 20260508223717 | 80 | 294 | 7.0 | 17.0 | 0.00 | 0.00 | 0.00 | 4 | 1015.8 |
| 20260508223231 | 80 | 297 | 11.0 | 17.0 | 0.00 | 0.00 | 0.00 | 5 | 1015.7 |
| 20260508222726 | 80 | 327 | 8.0 | 16.0 | 0.00 | 0.00 | 0.00 | 5 | 1015.8 |
| 20260508222219 | 80 | 343 | 8.0 | 13.0 | 0.00 | 0.00 | 0.00 | 6 | 1015.8 |
| 20260508221713 | 79 | 9 | 6.0 | 15.0 | 0.00 | 0.00 | 0.00 | 5 | 1015.9 |
| 20260508221227 | 79 | 5 | 6.0 | 15.0 | 0.00 | 0.00 | 0.00 | 6 | 1015.9 |
| 20260508220741 | 80 | 344 | 7.0 | 16.0 | 0.00 | 0.00 | 0.00 | 7 | 1016.0 |
| 20260508215713 | 80 | 329 | 9.0 | 18.0 | 0.00 | 0.00 | 0.00 | 5 | 1016.2 |
| 20260508215228 | 79 | 304 | 8.0 | 13.0 | 0.00 | 0.00 | 0.00 | 6 | 1016.2 |
| 20260508214721 | 79 | 311 | 2.0 | 16.0 | 0.00 | 0.00 | 0.00 | 6 | 1016.2 |
| 20260508214215 | 79 | 311 | 8.0 | 20.0 | 0.00 | 0.00 | 0.00 | 5 | 1016.3 |
| 20260508213729 | 79 | 319 | 12.0 | 20.0 | 0.00 | 0.00 | 0.00 | 6 | 1016.3 |
| 20260508213222 | 80 | 344 | 5.0 | 14.0 | 0.00 | 0.00 | 0.00 | 8 | 1016.3 |
| 20260508212717 | 80 | 344 | 8.0 | 14.0 | 0.00 | 0.00 | 0.00 | 6 | 1016.3 |
| 20260508212214 | 79 | 360 | 8.0 | 16.0 | 0.00 | 0.00 | 0.00 | 6 | 1016.5 |
| 20260508211727 | 79 | 344 | 10.0 | 16.0 | 0.00 | 0.00 | 0.00 | 5 | 1016.7 |
| 20260508211222 | 80 | 17 | 8.0 | 17.0 | 0.00 | 0.00 | 0.00 | 6 | 1016.6 |
| 20260508210716 | 80 | 10 | 10.0 | 17.0 | 0.00 | 0.00 | 0.00 | 5 | 1016.6 |
| 20260508210231 | 79 | 320 | 7.0 | 15.0 | 0.00 | 0.00 | 0.00 | 6 | 1016.6 |
| 20260508205724 | 79 | 338 | 9.0 | 15.0 | 0.00 | 0.00 | 0.00 | 6 | 1016.8 |
| 20260508205218 | 80 | 327 | 9.0 | 15.0 | 0.00 | 0.00 | 0.00 | 6 | 1016.8 |
| 20260508204716 | 80 | 327 | 9.0 | 15.0 | 0.00 | 0.00 | 0.00 | 7 | 1016.9 |
| 20260508204230 | 80 | 317 | 4.0 | 14.0 | 0.00 | 0.00 | 0.00 | 6 | 1016.9 |
| 20260508203744 | 79 | 322 | 6.0 | 19.0 | 0.00 | 0.00 | 0.00 | 5 | 1016.9 |
| 20260508203217 | 80 | 5 | 8.0 | 19.0 | 0.00 | 0.00 | 0.00 | 7 | 1016.9 |
| 20260508202731 | 79 | 342 | 10.0 | 17.0 | 0.00 | 0.00 | 0.00 | 5 | 1016.9 |
| 20260508202225 | 79 | 341 | 9.0 | 15.0 | 0.00 | 0.00 | 0.00 | 5 | 1017.0 |
| 20260508201719 | 79 | 338 | 6.0 | 14.0 | 0.00 | 0.00 | 0.00 | 8 | 1016.9 |
| 20260508201253 | 79 | 322 | 7.0 | 17.0 | 0.00 | 0.00 | 0.00 | 6 | 1016.9 |
| 20260508200726 | 80 | 327 | 11.0 | 17.0 | 0.00 | 0.00 | 0.00 | 6 | 1017.1 |
| 20260508200226 | 81 | 306 | 5.0 | 12.0 | 0.00 | 0.00 | 0.00 | 9 | 1017.1 |
| 20260508195720 | 80 | 306 | 9.0 | 14.0 | 0.00 | 0.00 | 0.00 | 7 | 1017.1 |
| 20260508195215 | 80 | 312 | 8.0 | 14.0 | 0.00 | 0.00 | 0.00 | 8 | 1017.2 |
| 20260508194727 | 79 | 334 | 4.0 | 16.0 | 0.00 | 0.00 | 0.00 | 6 | 1017.1 |
| 20260508194222 | 79 | 328 | 6.0 | 16.0 | 0.00 | 0.00 | 0.00 | 8 | 1017.1 |
| 20260508193716 | 79 | 327 | 8.0 | 18.0 | 0.00 | 0.00 | 0.00 | 8 | 1017.2 |
| 20260508193229 | 79 | 309 | 10.0 | 18.0 | 0.00 | 0.00 | 0.00 | 8 | 1017.3 |
| 20260508192742 | 78 | 232 | 5.0 | 16.0 | 0.00 | 0.00 | 0.00 | 6 | 1017.2 |
| 20260508192216 | 78 | 232 | 10.0 | 16.0 | 0.00 | 0.00 | 0.00 | 6 | 1017.3 |
| 20260508191713 | 78 | 291 | 6.0 | 15.0 | 0.00 | 0.00 | 0.00 | 6 | 1017.4 |
| 20260508190720 | 78 | 317 | 5.0 | 14.0 | 0.00 | 0.00 | 0.00 | 8 | 1017.5 |
| 20260508190236 | 77 | 320 | 8.0 | 14.0 | 0.00 | 0.00 | 0.00 | 9 | 1017.6 |
| 20260508185728 | 77 | 314 | 8.0 | 14.0 | 0.00 | 0.00 | 0.00 | 8 | 1017.6 |
| 20260508185222 | 77 | 324 | 7.0 | 14.0 | 0.00 | 0.00 | 0.00 | 9 | 1017.6 |
| 20260508184737 | 77 | 318 | 5.0 | 11.0 | 0.00 | 0.00 | 0.00 | 11 | 1017.7 |
| 20260508184228 | 77 | 306 | 6.0 | 11.0 | 0.00 | 0.00 | 0.00 | 8 | 1017.7 |
| 20260508183722 | 77 | 303 | 6.0 | 11.0 | 0.00 | 0.00 | 0.00 | 8 | 1017.7 |
| 20260508183220 | 77 | 299 | 6.0 | 11.0 | 0.00 | 0.00 | 0.00 | 8 | 1017.8 |
| 20260508182715 | 77 | 299 | 7.0 | 11.0 | 0.00 | 0.00 | 0.00 | 8 | 1017.9 |
| 20260508182229 | 75 | 296 | 3.0 | 13.0 | 0.00 | 0.00 | 0.00 | 11 | 1017.9 |
| 20260508181722 | 76 | 296 | 3.0 | 13.0 | 0.00 | 0.00 | 0.00 | 10 | 1017.9 |
| 20260508181214 | 77 | 309 | 6.0 | 12.0 | 0.00 | 0.00 | 0.00 | 8 | 1017.9 |
| 20260508180727 | 76 | 309 | 3.0 | 14.0 | 0.00 | 0.00 | 0.00 | 10 | 1017.9 |
| 20260508180222 | 76 | 309 | 9.0 | 14.0 | 0.00 | 0.00 | 0.00 | 9 | 1017.9 |
| 20260508175716 | 76 | 224 | 5.0 | 11.0 | 0.00 | 0.00 | 0.00 | 11 | 1017.9 |
| 20260508175249 | 75 | 222 | 5.0 | 11.0 | 0.00 | 0.00 | 0.00 | 8 | 1018.0 |
| 20260508174726 | 75 | 205 | 4.0 | 9.0 | 0.00 | 0.00 | 0.00 | 10 | 1018.0 |
| 20260508174219 | 75 | 200 | 5.0 | 9.0 | 0.00 | 0.00 | 0.00 | 10 | 1018.1 |
| 20260508173733 | 74 | 157 | 5.0 | 9.0 | 0.00 | 0.00 | 0.00 | 12 | 1018.1 |
| 20260508173247 | 74 | 148 | 3.0 | 7.0 | 0.00 | 0.00 | 0.00 | 12 | 1018.1 |
| 20260508172720 | 73 | 147 | 3.0 | 7.0 | 0.00 | 0.00 | 0.00 | 10 | 1018.2 |
| 20260508172214 | 74 | 148 | 3.0 | 9.0 | 0.00 | 0.00 | 0.00 | 13 | 1018.2 |
| 20260508171748 | 73 | 148 | 4.0 | 9.0 | 0.00 | 0.00 | 0.00 | 10 | 1018.2 |
| 20260508171222 | 74 | 134 | 3.0 | 7.0 | 0.00 | 0.00 | 0.00 | 12 | 1018.2 |
| 20260508170720 | 72 | 134 | 2.0 | 7.0 | 0.00 | 0.00 | 0.00 | 12 | 1018.2 |
| 20260508170237 | 72 | 134 | 3.0 | 7.0 | 0.00 | 0.00 | 0.00 | 12 | 1018.2 |
| 20260508165729 | 72 | 134 | 1.0 | 9.0 | 0.00 | 0.00 | 0.00 | 11 | 1018.2 |
| 20260508165223 | 72 | 134 | 3.0 | 9.0 | 0.00 | 0.00 | 0.00 | 13 | 1018.2 |
| 20260508164718 | 72 | 130 | 2.0 | 7.0 | 0.00 | 0.00 | 0.00 | 14 | 1018.2 |
| 20260508164252 | 72 | 124 | 4.0 | 6.0 | 0.00 | 0.00 | 0.00 | 13 | 1018.2 |
| 20260508163725 | 71 | 124 | 3.0 | 7.0 | 0.00 | 0.00 | 0.00 | 13 | 1018.1 |
| 20260508163239 | 71 | 125 | 4.0 | 7.0 | 0.00 | 0.00 | 0.00 | 12 | 1018.1 |
| 20260508162731 | 72 | 126 | 4.0 | 8.0 | 0.00 | 0.00 | 0.00 | 12 | 1018.0 |
| 20260508162246 | 72 | 123 | 3.0 | 8.0 | 0.00 | 0.00 | 0.00 | 17 | 1018.0 |
| 20260508161723 | 72 | 128 | 4.0 | 7.0 | 0.00 | 0.00 | 0.00 | 14 | 1017.9 |
| 20260508161216 | 72 | 126 | 3.0 | 5.0 | 0.00 | 0.00 | 0.00 | 17 | 1017.9 |
| 20260508160750 | 71 | 126 | 1.0 | 4.0 | 0.00 | 0.00 | 0.00 | 15 | 1017.9 |
| 20260508160224 | 70 | 127 | 2.0 | 5.0 | 0.00 | 0.00 | 0.00 | 16 | 1017.9 |
| 20260508155718 | 70 | 126 | 2.0 | 5.0 | 0.00 | 0.00 | 0.00 | 16 | 1017.8 |
| 20260508155231 | 69 | 126 | 2.0 | 4.0 | 0.00 | 0.00 | 0.00 | 17 | 1017.8 |
| 20260508154725 | 68 | 127 | 2.0 | 5.0 | 0.00 | 0.00 | 0.00 | 19 | 1017.8 |
| 20260508154218 | 67 | 127 | 3.0 | 5.0 | 0.00 | 0.00 | 0.00 | 19 | 1017.8 |
| 20260508153732 | 67 | 127 | 3.0 | 5.0 | 0.00 | 0.00 | 0.00 | 19 | 1017.8 |
| 20260508153231 | 67 | 127 | 3.0 | 5.0 | 0.00 | 0.00 | 0.00 | 19 | 1017.9 |
| 20260508152725 | 67 | 127 | 1.0 | 5.0 | 0.00 | 0.00 | 0.00 | 20 | 1017.8 |
| 20260508152219 | 67 | 127 | 2.0 | 4.0 | 0.00 | 0.00 | 0.00 | 20 | 1017.8 |
| 20260508151753 | 66 | 127 | 1.0 | 2.0 | 0.00 | 0.00 | 0.00 | 18 | 1017.8 |
| 20260508151226 | 66 | 127 | 0.0 | 2.0 | 0.00 | 0.00 | 0.00 | 18 | 1017.8 |
| 20260508150719 | 66 | 127 | 0.0 | 2.0 | 0.00 | 0.00 | 0.00 | 19 | 1017.8 |
| 20260508150235 | 65 | 127 | 0.0 | 0.0 | 0.00 | 0.00 | 0.00 | 20 | 1017.7 |
| 20260508145727 | 65 | 127 | 0.0 | 0.0 | 0.00 | 0.00 | 0.00 | 19 | 1017.6 |
| 20260508145222 | 63 | 127 | 0.0 | 0.0 | 0.00 | 0.00 | 0.00 | 20 | 1017.7 |
| 20260508144719 | 63 | 127 | 0.0 | 0.0 | 0.00 | 0.00 | 0.00 | 20 | 1017.7 |
| 20260508144253 | 63 | 127 | 0.0 | 0.0 | 0.00 | 0.00 | 0.00 | 23 | 1017.7 |
| 20260508143726 | 62 | 127 | 0.0 | 2.0 | 0.00 | 0.00 | 0.00 | 21 | 1017.8 |
| 20260508143220 | 61 | 127 | 0.0 | 2.0 | 0.00 | 0.00 | 0.00 | 22 | 1017.7 |
| 20260508142714 | 61 | 127 | 0.0 | 2.0 | 0.00 | 0.00 | 0.00 | 23 | 1017.7 |
| 20260508142228 | 61 | 127 | 1.0 | 4.0 | 0.00 | 0.00 | 0.00 | 23 | 1017.7 |
| 20260508141722 | 60 | 127 | 2.0 | 4.0 | 0.00 | 0.00 | 0.00 | 22 | 1017.6 |
| 20260508141216 | 60 | 127 | 3.0 | 4.0 | 0.00 | 0.00 | 0.00 | 22 | 1017.6 |
| 20260508140750 | 60 | 127 | 2.0 | 3.0 | 0.00 | 0.00 | 0.00 | 22 | 1017.6 |
| 20260508140228 | 60 | 127 | 1.0 | 3.0 | 0.00 | 0.00 | 0.00 | 24 | 1017.6 |
| 20260508135722 | 60 | 127 | 1.0 | 3.0 | 0.00 | 0.00 | 0.00 | 25 | 1017.6 |
| 20260508135215 | 59 | 127 | 2.0 | 3.0 | 0.00 | 0.00 | 0.00 | 24 | 1017.5 |
| 20260508134730 | 58 | 127 | 0.0 | 1.0 | 0.00 | 0.00 | 0.00 | 27 | 1017.5 |
| 20260508134244 | 57 | 127 | 0.0 | 1.0 | 0.00 | 0.00 | 0.00 | 27 | 1017.4 |
| 20260508133737 | 57 | 127 | 0.0 | 2.0 | 0.00 | 0.00 | 0.00 | 27 | 1017.3 |
| 20260508133251 | 55 | 127 | 0.0 | 2.0 | 0.00 | 0.00 | 0.00 | 32 | 1017.3 |
| 20260508132724 | 54 | 127 | 0.0 | 2.0 | 0.00 | 0.00 | 0.00 | 34 | 1017.2 |
| 20260508132218 | 52 | 127 | 0.0 | 4.0 | 0.00 | 0.00 | 0.00 | 35 | 1017.0 |
| 20260508131715 | 55 | 127 | 2.0 | 5.0 | 0.00 | 0.00 | 0.00 | 33 | 1017.0 |
| 20260508131228 | 54 | 127 | 3.0 | 5.0 | 0.00 | 0.00 | 0.00 | 31 | 1016.9 |
| 20260508130721 | 55 | 127 | 2.0 | 7.0 | 0.00 | 0.00 | 0.00 | 30 | 1016.8 |
| 20260508130217 | 55 | 127 | 2.0 | 8.0 | 0.00 | 0.00 | 0.00 | 29 | 1016.7 |
| 20260508125730 | 55 | 127 | 4.0 | 9.0 | 0.00 | 0.00 | 0.00 | 29 | 1016.6 |
| 20260508125224 | 54 | 127 | 7.0 | 10.0 | 0.00 | 0.00 | 0.00 | 30 | 1016.6 |
| 20260508124718 | 55 | 127 | 7.0 | 10.0 | 0.00 | 0.00 | 0.00 | 29 | 1016.5 |
| 20260508124231 | 53 | 127 | 3.0 | 11.0 | 0.00 | 0.00 | 0.00 | 31 | 1016.5 |
| 20260508123725 | 56 | 127 | 5.0 | 13.0 | 0.00 | 0.00 | 0.00 | 27 | 1016.4 |
| 20260508123223 | 56 | 127 | 9.0 | 13.0 | 0.00 | 0.00 | 0.00 | 28 | 1016.4 |
| 20260508122716 | 56 | 127 | 10.0 | 13.0 | 0.00 | 0.00 | 0.00 | 28 | 1016.2 |
| 20260508122229 | 56 | 127 | 11.0 | 13.0 | 0.00 | 0.00 | 0.00 | 28 | 1016.2 |
| 20260508121723 | 55 | 129 | 10.0 | 12.0 | 0.00 | 0.00 | 0.00 | 29 | 1016.2 |
| 20260508121216 | 55 | 128 | 9.0 | 12.0 | 0.00 | 0.00 | 0.00 | 29 | 1016.2 |
| 20260508120749 | 56 | 128 | 9.0 | 13.0 | 0.00 | 0.00 | 0.00 | 28 | 1016.2 |
| 20260508120224 | 56 | 128 | 11.0 | 13.0 | 0.00 | 0.00 | 0.00 | 28 | 1016.1 |
| 20260508115717 | 56 | 129 | 9.0 | 12.0 | 0.00 | 0.00 | 0.00 | 29 | 1016.1 |
| 20260508115231 | 55 | 128 | 9.0 | 12.0 | 0.00 | 0.00 | 0.00 | 29 | 1016.1 |
| 20260508114725 | 54 | 127 | 8.0 | 10.0 | 0.00 | 0.00 | 0.00 | 30 | 1016.1 |
| 20260508114223 | 55 | 127 | 6.0 | 9.0 | 0.00 | 0.00 | 0.00 | 29 | 1016.1 |
| 20260508113717 | 55 | 127 | 5.0 | 8.0 | 0.00 | 0.00 | 0.00 | 30 | 1016.1 |
| 20260508113231 | 53 | 127 | 5.0 | 8.0 | 0.00 | 0.00 | 0.00 | 33 | 1016.0 |
| 20260508112725 | 53 | 127 | 3.0 | 4.0 | 0.00 | 0.00 | 0.00 | 34 | 1016.1 |
| 20260508112219 | 53 | 127 | 2.0 | 4.0 | 0.00 | 0.00 | 0.00 | 33 | 1016.0 |
| 20260508111733 | 53 | 127 | 3.0 | 4.0 | 0.00 | 0.00 | 0.00 | 33 | 1016.1 |
| 20260508111227 | 54 | 127 | 3.0 | 7.0 | 0.00 | 0.00 | 0.00 | 32 | 1016.1 |
| 20260508110720 | 55 | 127 | 1.0 | 9.0 | 0.00 | 0.00 | 0.00 | 31 | 1016.0 |
| 20260508110219 | 56 | 127 | 4.0 | 9.0 | 0.00 | 0.00 | 0.00 | 29 | 1016.0 |
| 20260508105733 | 56 | 127 | 6.0 | 9.0 | 0.00 | 0.00 | 0.00 | 28 | 1016.0 |
| 20260508105247 | 57 | 127 | 6.0 | 9.0 | 0.00 | 0.00 | 0.00 | 28 | 1015.9 |
| 20260508104719 | 57 | 127 | 7.0 | 10.0 | 0.00 | 0.00 | 0.00 | 27 | 1015.8 |
| 20260508104254 | 57 | 127 | 7.0 | 11.0 | 0.00 | 0.00 | 0.00 | 28 | 1015.7 |
| 20260508103727 | 57 | 127 | 8.0 | 11.0 | 0.00 | 0.00 | 0.00 | 28 | 1015.7 |
| 20260508103220 | 57 | 127 | 7.0 | 12.0 | 0.00 | 0.00 | 0.00 | 28 | 1015.6 |
| 20260508102715 | 57 | 127 | 10.0 | 12.0 | 0.00 | 0.00 | 0.00 | 27 | 1015.6 |
| 20260508102229 | 57 | 127 | 8.0 | 12.0 | 0.00 | 0.00 | 0.00 | 27 | 1015.6 |
| 20260508101742 | 57 | 127 | 9.0 | 12.0 | 0.00 | 0.00 | 0.00 | 27 | 1015.5 |
| 20260508101219 | 57 | 127 | 8.0 | 13.0 | 0.00 | 0.00 | 0.00 | 27 | 1015.5 |
| 20260508100714 | 58 | 128 | 9.0 | 13.0 | 0.00 | 0.00 | 0.00 | 27 | 1015.5 |
| 20260508100227 | 57 | 128 | 10.0 | 12.0 | 0.00 | 0.00 | 0.00 | 27 | 1015.5 |
| 20260508095720 | 57 | 127 | 9.0 | 11.0 | 0.00 | 0.00 | 0.00 | 27 | 1015.5 |
| 20260508095235 | 57 | 127 | 8.0 | 12.0 | 0.00 | 0.00 | 0.00 | 27 | 1015.4 |
| 20260508094727 | 57 | 127 | 9.0 | 13.0 | 0.00 | 0.00 | 0.00 | 27 | 1015.4 |
| 20260508094221 | 58 | 128 | 9.0 | 13.0 | 0.00 | 0.00 | 0.00 | 27 | 1015.4 |
| 20260508093716 | 58 | 128 | 10.0 | 12.0 | 0.00 | 0.00 | 0.00 | 27 | 1015.4 |
| 20260508093214 | 58 | 128 | 7.0 | 11.0 | 0.00 | 0.00 | 0.00 | 27 | 1015.4 |
| 20260508092728 | 58 | 128 | 6.0 | 11.0 | 0.00 | 0.00 | 0.00 | 27 | 1015.4 |
| 20260508092221 | 58 | 128 | 6.0 | 13.0 | 0.00 | 0.00 | 0.00 | 27 | 1015.3 |
| 20260508091735 | 58 | 128 | 8.0 | 13.0 | 0.00 | 0.00 | 0.00 | 27 | 1015.3 |
| 20260508091228 | 57 | 128 | 10.0 | 12.0 | 0.00 | 0.00 | 0.00 | 28 | 1015.4 |
| 20260508090722 | 57 | 128 | 9.0 | 12.0 | 0.00 | 0.00 | 0.00 | 28 | 1015.4 |
| 20260508090217 | 57 | 128 | 7.0 | 11.0 | 0.00 | 0.00 | 0.00 | 28 | 1015.4 |
| 20260508085731 | 58 | 128 | 8.0 | 11.0 | 0.00 | 0.00 | 0.00 | 27 | 1015.4 |
| 20260508085245 | 58 | 128 | 8.0 | 11.0 | 0.00 | 0.00 | 0.00 | 27 | 1015.4 |
| 20260508084721 | 58 | 128 | 8.0 | 11.0 | 0.00 | 0.00 | 0.00 | 27 | 1015.5 |
| 20260508084216 | 57 | 128 | 9.0 | 11.0 | 0.00 | 0.00 | 0.00 | 27 | 1015.5 |
| 20260508083729 | 58 | 128 | 9.0 | 11.0 | 0.00 | 0.00 | 0.00 | 27 | 1015.5 |
| 20260508083224 | 58 | 128 | 6.0 | 11.0 | 0.00 | 0.00 | 0.00 | 27 | 1015.5 |
| 20260508082717 | 58 | 128 | 9.0 | 11.0 | 0.00 | 0.00 | 0.00 | 27 | 1015.5 |
| 20260508082232 | 58 | 128 | 7.0 | 9.0 | 0.00 | 0.00 | 0.00 | 27 | 1015.5 |
| 20260508081726 | 58 | 128 | 6.0 | 11.0 | 0.00 | 0.00 | 0.00 | 26 | 1015.6 |
| 20260508081219 | 59 | 128 | 6.0 | 11.0 | 0.00 | 0.00 | 0.00 | 26 | 1015.6 |
| 20260508080753 | 59 | 128 | 6.0 | 10.0 | 0.00 | 0.00 | 0.00 | 25 | 1015.7 |
| 20260508080231 | 59 | 128 | 5.0 | 10.0 | 0.00 | 0.00 | 0.00 | 25 | 1015.7 |
| 20260508075745 | 57 | 126 | 6.0 | 10.0 | 0.00 | 0.00 | 0.00 | 27 | 1015.8 |
| 20260508075219 | 59 | 124 | 3.0 | 10.0 | 0.00 | 0.00 | 0.00 | 25 | 1015.8 |
| 20260508074732 | 61 | 124 | 7.0 | 13.0 | 0.00 | 0.00 | 0.00 | 24 | 1015.7 |
| 20260508074226 | 60 | 123 | 9.0 | 13.0 | 0.00 | 0.00 | 0.00 | 25 | 1015.7 |
| 20260508073740 | 59 | 124 | 10.0 | 12.0 | 0.00 | 0.00 | 0.00 | 25 | 1015.7 |
| 20260508073253 | 60 | 123 | 8.0 | 10.0 | 0.00 | 0.00 | 0.00 | 25 | 1015.7 |
| 20260508072726 | 60 | 124 | 7.0 | 10.0 | 0.00 | 0.00 | 0.00 | 25 | 1015.7 |
| 20260508072220 | 60 | 124 | 6.0 | 10.0 | 0.00 | 0.00 | 0.00 | 25 | 1015.7 |
| 20260508071714 | 60 | 124 | 7.0 | 10.0 | 0.00 | 0.00 | 0.00 | 25 | 1015.6 |
| 20260508071232 | 59 | 124 | 7.0 | 10.0 | 0.00 | 0.00 | 0.00 | 25 | 1015.6 |
| 20260508070726 | 59 | 123 | 7.0 | 11.0 | 0.00 | 0.00 | 0.00 | 26 | 1015.5 |
| 20260508070240 | 59 | 124 | 7.0 | 12.0 | 0.00 | 0.00 | 0.00 | 26 | 1015.6 |
| 20260508065732 | 59 | 124 | 9.0 | 12.0 | 0.00 | 0.00 | 0.00 | 25 | 1015.6 |
| 20260508065247 | 59 | 124 | 7.0 | 12.0 | 0.00 | 0.00 | 0.00 | 25 | 1015.6 |
| 20260508064720 | 59 | 123 | 9.0 | 11.0 | 0.00 | 0.00 | 0.00 | 25 | 1015.6 |
| 20260508064214 | 59 | 124 | 8.0 | 10.0 | 0.00 | 0.00 | 0.00 | 25 | 1015.5 |
| 20260508063727 | 60 | 124 | 8.0 | 10.0 | 0.00 | 0.00 | 0.00 | 25 | 1015.4 |
| 20260508063222 | 60 | 124 | 7.0 | 9.0 | 0.00 | 0.00 | 0.00 | 24 | 1015.5 |
| 20260508062740 | 61 | 124 | 7.0 | 9.0 | 0.00 | 0.00 | 0.00 | 23 | 1015.4 |
| 20260508062214 | 62 | 124 | 6.0 | 14.0 | 0.00 | 0.00 | 0.00 | 22 | 1015.4 |
| 20260508061747 | 62 | 123 | 3.0 | 14.0 | 0.00 | 0.00 | 0.00 | 22 | 1015.4 |
| 20260508061241 | 60 | 125 | 10.0 | 12.0 | 0.00 | 0.00 | 0.00 | 24 | 1015.4 |
| 20260508060713 | 60 | 124 | 9.0 | 12.0 | 0.00 | 0.00 | 0.00 | 24 | 1015.3 |
| 20260508060229 | 60 | 124 | 8.0 | 12.0 | 0.00 | 0.00 | 0.00 | 24 | 1015.3 |
| 20260508055722 | 60 | 124 | 10.0 | 12.0 | 0.00 | 0.00 | 0.00 | 24 | 1015.2 |